GKPFL EHAM-EGKK

Flight info

Callsign GKPFL
Flight time 0h 48m
Altitude 24000
Route IDRID L980 ABNED Z344 AMRIV Q63 ARREK Y4 TEBRA
Aircraft CL60/M-SBDE1E2E3FGHIJ4J5J7M3RWXYZ/LB1V1D1

Departure

Time 2026-05-07 10:22
Airport Amsterdam Airport Schiphol (EHAM)

Arrival

Time 2026-05-07 11:10
Airport London Gatwick Airport (EGKK)
Time Latitude Longitude Altitude Speed Heading
2026-05-07 10:00 52.31092 4.80311 -2 ft 0 kts 133°
2026-05-07 10:14 52.31088 4.80320 -2 ft 3 kts 133°
2026-05-07 10:14 52.31083 4.80366 -2 ft 6 kts 39°
2026-05-07 10:15 52.31127 4.80428 -2 ft 10 kts 41°
2026-05-07 10:15 52.31189 4.80516 -2 ft 13 kts 42°
2026-05-07 10:15 52.31249 4.80541 -2 ft 4 kts 288°
2026-05-07 10:15 52.31249 4.80534 -2 ft 0 kts 272°
2026-05-07 10:17 52.31249 4.80509 -2 ft 4 kts 267°
2026-05-07 10:18 52.31239 4.80411 -2 ft 11 kts 230°
2026-05-07 10:18 52.31166 4.80314 -2 ft 15 kts 221°
2026-05-07 10:18 52.31081 4.80188 -2 ft 17 kts 223°
2026-05-07 10:18 52.30983 4.80050 -2 ft 20 kts 221°
2026-05-07 10:19 52.30871 4.79890 -2 ft 22 kts 222°
2026-05-07 10:19 52.30745 4.79709 -2 ft 25 kts 220°
2026-05-07 10:19 52.30604 4.79509 -2 ft 27 kts 221°
2026-05-07 10:19 52.30460 4.79301 -2 ft 25 kts 221°
2026-05-07 10:20 52.30322 4.79106 -2 ft 26 kts 224°
2026-05-07 10:20 52.30181 4.78902 -2 ft 25 kts 221°
2026-05-07 10:20 52.30087 4.78767 -2 ft 6 kts 222°
2026-05-07 10:20 52.30071 4.78745 -2 ft 0 kts 221°
2026-05-07 10:21 52.30069 4.78741 -2 ft 2 kts 221°
2026-05-07 10:21 52.30039 4.78668 -2 ft 12 kts 263°
2026-05-07 10:21 52.30098 4.78522 -2 ft 15 kts 312°
2026-05-07 10:22 52.30162 4.78529 -2 ft 11 kts 42°
2026-05-07 10:22 52.30447 4.78937 -2 ft 107 kts 40°
2026-05-07 10:22 52.31189 4.80022 331 ft 166 kts 44°
2026-05-07 10:22 52.32074 4.81335 1269 ft 185 kts 42°
2026-05-07 10:23 52.33057 4.82728 2380 ft 198 kts 38°
2026-05-07 10:23 52.34330 4.83712 3282 ft 208 kts
2026-05-07 10:23 52.35771 4.83321 4054 ft 231 kts 332°
2026-05-07 10:23 52.37078 4.81523 5012 ft 259 kts 317°
2026-05-07 10:24 52.38351 4.79467 6350 ft 269 kts 316°
2026-05-07 10:24 52.39489 4.77036 7763 ft 276 kts 297°
2026-05-07 10:24 52.39962 4.74021 9211 ft 283 kts 272°
2026-05-07 10:24 52.39576 4.70963 10605 ft 289 kts 247°
2026-05-07 10:25 52.38637 4.67908 11506 ft 313 kts 243°
2026-05-07 10:25 52.37593 4.64686 12442 ft 331 kts 243°
2026-05-07 10:25 52.36489 4.61272 12923 ft 341 kts 243°
2026-05-07 10:25 52.35325 4.57868 13046 ft 339 kts 242°
2026-05-07 10:26 52.34146 4.54479 13268 ft 355 kts 242°
2026-05-07 10:26 52.32919 4.50962 14540 ft 358 kts 242°
2026-05-07 10:26 52.31698 4.47465 16026 ft 353 kts 241°
2026-05-07 10:26 52.30489 4.44006 17269 ft 354 kts 242°
2026-05-07 10:27 52.29269 4.40522 18335 ft 358 kts 242°
2026-05-07 10:27 52.28033 4.36996 19329 ft 363 kts 241°
2026-05-07 10:27 52.26774 4.33412 20263 ft 369 kts 240°
2026-05-07 10:27 52.25486 4.29751 21195 ft 373 kts 240°
2026-05-07 10:28 52.24181 4.26047 22067 ft 378 kts 240°
2026-05-07 10:28 52.22849 4.22273 22924 ft 382 kts 240°
2026-05-07 10:28 52.21517 4.18503 23666 ft 389 kts 240°
2026-05-07 10:28 52.20130 4.14581 24011 ft 405 kts 240°
2026-05-07 10:29 52.18682 4.10494 24074 ft 422 kts 240°
2026-05-07 10:29 52.17196 4.06309 24075 ft 426 kts 240°
2026-05-07 10:29 52.15740 4.02212 24070 ft 421 kts 240°
2026-05-07 10:30 52.12810 3.93992 24072 ft 417 kts 240°
2026-05-07 10:30 52.11356 3.89922 24072 ft 416 kts 240°
2026-05-07 10:30 52.09900 3.85857 24071 ft 416 kts 240°
2026-05-07 10:30 52.08413 3.81710 24072 ft 417 kts 240°
2026-05-07 10:31 52.06938 3.77601 24072 ft 418 kts 240°
2026-05-07 10:31 52.05466 3.73510 24072 ft 418 kts 240°
2026-05-07 10:31 52.03979 3.69383 24076 ft 418 kts 240°
2026-05-07 10:31 52.02514 3.65323 24073 ft 418 kts 240°
2026-05-07 10:32 52.01044 3.61257 24079 ft 418 kts 240°
2026-05-07 10:32 51.99560 3.57157 24079 ft 418 kts 240°
2026-05-07 10:32 51.98093 3.53111 24078 ft 417 kts 240°
2026-05-07 10:32 51.96625 3.49070 24079 ft 417 kts 240°
2026-05-07 10:33 51.95163 3.45052 24077 ft 417 kts 240°
2026-05-07 10:33 51.93686 3.40998 24079 ft 417 kts 240°
2026-05-07 10:33 51.92222 3.36987 24077 ft 417 kts 240°
2026-05-07 10:33 51.90747 3.32950 24075 ft 417 kts 239°
2026-05-07 10:34 51.89266 3.28907 24079 ft 417 kts 239°
2026-05-07 10:34 51.87767 3.24820 24073 ft 418 kts 239°
2026-05-07 10:34 51.86294 3.20809 24073 ft 418 kts 239°
2026-05-07 10:34 51.84831 3.16758 24072 ft 418 kts 241°
2026-05-07 10:35 51.83478 3.12572 24075 ft 418 kts 243°
2026-05-07 10:35 51.82166 3.08395 24075 ft 418 kts 243°
2026-05-07 10:35 51.80839 3.04189 24071 ft 418 kts 243°
2026-05-07 10:35 51.79526 3.00031 24072 ft 418 kts 243°
2026-05-07 10:36 51.78209 2.95871 24071 ft 418 kts 243°
2026-05-07 10:36 51.76872 2.91658 24073 ft 418 kts 243°
2026-05-07 10:36 51.75568 2.87557 24066 ft 407 kts 243°
2026-05-07 10:36 51.74285 2.83530 23887 ft 391 kts 243°
2026-05-07 10:37 51.73072 2.79730 23400 ft 384 kts 243°
2026-05-07 10:37 51.71855 2.75923 22752 ft 381 kts 243°
2026-05-07 10:37 51.70649 2.72156 22230 ft 373 kts 243°
2026-05-07 10:37 51.69465 2.68436 22070 ft 374 kts 245°
2026-05-07 10:38 51.68662 2.64471 22065 ft 376 kts 260°
2026-05-07 10:38 51.68278 2.60244 22056 ft 379 kts 262°
2026-05-07 10:38 51.67909 2.56034 22061 ft 379 kts 262°
2026-05-07 10:38 51.67536 2.51851 22063 ft 379 kts 262°
2026-05-07 10:39 51.67160 2.47664 22064 ft 379 kts 262°
2026-05-07 10:39 51.66781 2.43466 22065 ft 379 kts 262°
2026-05-07 10:39 51.66402 2.39288 22062 ft 378 kts 262°
2026-05-07 10:39 51.66019 2.35095 22063 ft 378 kts 262°
2026-05-07 10:40 51.65629 2.30843 22063 ft 378 kts 261°
2026-05-07 10:40 51.65243 2.26662 22063 ft 378 kts 261°
2026-05-07 10:40 51.64855 2.22472 22063 ft 378 kts 261°
2026-05-07 10:40 51.64463 2.18253 22063 ft 378 kts 261°
2026-05-07 10:41 51.64073 2.14088 22062 ft 378 kts 261°
2026-05-07 10:41 51.63678 2.09860 22065 ft 378 kts 262°
2026-05-07 10:41 51.63293 2.05674 22063 ft 378 kts 262°
2026-05-07 10:41 51.62910 2.01515 22062 ft 379 kts 262°
2026-05-07 10:42 51.62522 1.97324 22063 ft 379 kts 262°
2026-05-07 10:42 51.62130 1.93100 21730 ft 384 kts 262°
2026-05-07 10:42 51.61738 1.88902 21242 ft 377 kts 262°
2026-05-07 10:42 51.61137 1.84783 20750 ft 372 kts 249°
2026-05-07 10:43 51.59890 1.81196 20256 ft 368 kts 233°
2026-05-07 10:43 51.58249 1.78120 19749 ft 366 kts 229°
2026-05-07 10:43 51.56568 1.75063 19266 ft 363 kts 229°
2026-05-07 10:43 51.54903 1.72027 18782 ft 360 kts 229°
2026-05-07 10:44 51.53239 1.69001 18304 ft 358 kts 229°
2026-05-07 10:44 51.51603 1.66028 17830 ft 356 kts 229°
2026-05-07 10:44 51.49972 1.63065 17367 ft 353 kts 230°
2026-05-07 10:44 51.48608 1.59825 16889 ft 350 kts 246°
2026-05-07 10:45 51.47740 1.56171 16416 ft 347 kts 251°
2026-05-07 10:45 51.46915 1.52527 15944 ft 347 kts 250°
2026-05-07 10:45 51.46093 1.48934 15498 ft 345 kts 250°
2026-05-07 10:45 51.45265 1.45316 15037 ft 343 kts 250°
2026-05-07 10:46 51.44436 1.41708 14583 ft 342 kts 251°
2026-05-07 10:46 51.43422 1.38278 14178 ft 338 kts 236°
2026-05-07 10:46 51.41826 1.35566 14064 ft 338 kts 220°
2026-05-07 10:46 51.39912 1.33268 14054 ft 339 kts 217°
2026-05-07 10:47 51.38012 1.31008 14054 ft 339 kts 217°
2026-05-07 10:47 51.36125 1.28765 14052 ft 339 kts 217°
2026-05-07 10:47 51.34215 1.26499 14052 ft 339 kts 217°
2026-05-07 10:47 51.32310 1.24241 14052 ft 339 kts 217°
2026-05-07 10:48 51.30418 1.22001 14051 ft 339 kts 217°
2026-05-07 10:48 51.28726 1.19335 14056 ft 338 kts 236°
2026-05-07 10:48 51.27537 1.16089 14038 ft 339 kts 241°
2026-05-07 10:48 51.26372 1.12815 14051 ft 340 kts 240°
2026-05-07 10:49 51.25214 1.09583 13959 ft 330 kts 240°
2026-05-07 10:49 51.24076 1.06416 13312 ft 330 kts 240°
2026-05-07 10:49 51.22939 1.03255 12618 ft 331 kts 240°
2026-05-07 10:49 51.21796 1.00089 12078 ft 326 kts 240°
2026-05-07 10:50 51.20688 0.97022 11695 ft 317 kts 240°
2026-05-07 10:50 51.19593 0.93997 11327 ft 309 kts 240°
2026-05-07 10:50 51.18533 0.91076 10964 ft 302 kts 240°
2026-05-07 10:50 51.17478 0.88172 10631 ft 295 kts 240°
2026-05-07 10:51 51.16439 0.85318 10244 ft 290 kts 240°
2026-05-07 10:51 51.15782 0.83514 9966 ft 288 kts 240°
2026-05-07 10:51 51.14450 0.79861 9423 ft 285 kts 240°
2026-05-07 10:51 51.13451 0.77128 9004 ft 282 kts 240°
2026-05-07 10:52 51.12468 0.74439 8585 ft 280 kts 240°
2026-05-07 10:52 51.11485 0.71756 8194 ft 276 kts 240°
2026-05-07 10:52 51.10524 0.69138 8060 ft 275 kts 240°
2026-05-07 10:52 51.09547 0.66475 8051 ft 276 kts 240°
2026-05-07 10:53 51.08575 0.63830 8050 ft 276 kts 240°
2026-05-07 10:53 51.07601 0.61183 8055 ft 277 kts 240°
2026-05-07 10:53 51.06633 0.58554 8057 ft 275 kts 240°
2026-05-07 10:53 51.05676 0.55958 7758 ft 269 kts 240°
2026-05-07 10:54 51.04726 0.53386 7264 ft 269 kts 240°
2026-05-07 10:54 51.03773 0.50809 7065 ft 268 kts 240°
2026-05-07 10:54 51.02819 0.48229 7051 ft 270 kts 240°
2026-05-07 10:54 51.01859 0.45636 7048 ft 271 kts 240°
2026-05-07 10:55 51.00887 0.43015 7054 ft 271 kts 240°
2026-05-07 10:55 50.99937 0.40455 7052 ft 271 kts 240°
2026-05-07 10:55 50.98970 0.37850 7052 ft 270 kts 240°
2026-05-07 10:55 50.98010 0.35269 7049 ft 270 kts 240°
2026-05-07 10:56 50.97050 0.32690 7034 ft 266 kts 239°
2026-05-07 10:56 50.96108 0.30120 6731 ft 264 kts 243°
2026-05-07 10:56 50.95629 0.27339 6357 ft 267 kts 269°
2026-05-07 10:56 50.95876 0.24375 6018 ft 263 kts 281°
2026-05-07 10:57 50.96243 0.21512 5974 ft 266 kts 281°
2026-05-07 10:57 50.96619 0.18602 5983 ft 267 kts 281°
2026-05-07 10:57 50.96995 0.15706 5981 ft 268 kts 281°
2026-05-07 10:57 50.97374 0.12818 5942 ft 260 kts 281°
2026-05-07 10:58 50.97743 0.10002 5452 ft 262 kts 281°
2026-05-07 10:58 50.98112 0.07157 4920 ft 264 kts 281°
2026-05-07 10:58 50.98482 0.04267 4406 ft 264 kts 281°
2026-05-07 10:58 50.98794 0.01369 4057 ft 259 kts 275°
2026-05-07 10:59 50.98868 -0.01493 3981 ft 262 kts 271°
2026-05-07 10:59 50.98906 -0.04456 3980 ft 264 kts 271°
2026-05-07 10:59 50.98941 -0.07365 3983 ft 265 kts 271°
2026-05-07 10:59 50.98975 -0.10269 3988 ft 249 kts 271°
2026-05-07 11:00 50.99007 -0.12914 4001 ft 229 kts 271°
2026-05-07 11:00 50.99039 -0.15346 4003 ft 212 kts 271°
2026-05-07 11:00 50.99073 -0.17617 3984 ft 197 kts 271°
2026-05-07 11:00 50.99107 -0.19765 3744 ft 192 kts 271°
2026-05-07 11:01 50.99139 -0.21845 3392 ft 189 kts 271°
2026-05-07 11:01 50.99168 -0.23890 3278 ft 179 kts 271°
2026-05-07 11:01 50.99197 -0.25963 3200 ft 188 kts 271°
2026-05-07 11:01 50.99224 -0.28036 3155 ft 187 kts 271°
2026-05-07 11:02 50.99250 -0.30155 3108 ft 190 kts 271°
2026-05-07 11:02 50.99272 -0.32262 3062 ft 189 kts 271°
2026-05-07 11:02 50.99290 -0.34348 3020 ft 190 kts 271°
2026-05-07 11:02 50.99308 -0.36439 2989 ft 189 kts 271°
2026-05-07 11:03 50.99327 -0.38552 2982 ft 190 kts 271°
2026-05-07 11:03 50.99348 -0.40656 2976 ft 190 kts 271°
2026-05-07 11:03 50.99371 -0.42757 2975 ft 190 kts 271°
2026-05-07 11:03 50.99393 -0.44848 2977 ft 190 kts 271°
2026-05-07 11:04 50.99703 -0.46875 2959 ft 189 kts 304°
2026-05-07 11:04 51.00744 -0.48092 2965 ft 187 kts 338°
2026-05-07 11:04 51.01977 -0.48832 2981 ft 188 kts 341°
2026-05-07 11:04 51.03229 -0.49545 2972 ft 188 kts 341°
2026-05-07 11:05 51.04466 -0.50247 2970 ft 188 kts 341°
2026-05-07 11:05 51.05732 -0.50899 2968 ft 187 kts 344°
2026-05-07 11:05 51.07015 -0.51061 2958 ft 186 kts 14°
2026-05-07 11:05 51.08256 -0.50419 2973 ft 186 kts 21°
2026-05-07 11:06 51.09451 -0.49628 2968 ft 185 kts 33°
2026-05-07 11:06 51.10418 -0.48290 2965 ft 185 kts 55°
2026-05-07 11:06 51.10929 -0.46414 2970 ft 184 kts 75°
2026-05-07 11:06 51.11243 -0.44429 2973 ft 184 kts 77°
2026-05-07 11:07 51.11544 -0.42406 2929 ft 186 kts 77°
2026-05-07 11:07 51.11830 -0.40401 2662 ft 184 kts 78°
2026-05-07 11:07 51.12109 -0.38425 2439 ft 180 kts 78°
2026-05-07 11:07 51.12374 -0.36529 2219 ft 168 kts 78°
2026-05-07 11:08 51.12625 -0.34741 2011 ft 162 kts 78°
2026-05-07 11:08 51.12871 -0.32976 1786 ft 161 kts 78°
2026-05-07 11:08 51.13115 -0.31224 1567 ft 160 kts 78°
2026-05-07 11:08 51.13356 -0.29490 1356 ft 160 kts 79°
2026-05-07 11:09 51.13590 -0.27811 1147 ft 147 kts 79°
2026-05-07 11:09 51.13796 -0.26337 998 ft 131 kts 79°
2026-05-07 11:09 51.13994 -0.24915 794 ft 131 kts 79°
2026-05-07 11:09 51.14189 -0.23502 602 ft 128 kts 78°
2026-05-07 11:10 51.14383 -0.22114 450 ft 128 kts 78°
2026-05-07 11:10 51.14579 -0.20723 270 ft 127 kts 77°
2026-05-07 11:10 51.14758 -0.19430 211 ft 101 kts 78°
2026-05-07 11:10 51.14862 -0.18678 211 ft 48 kts 79°
2026-05-07 11:11 51.14927 -0.18166 211 ft 46 kts 76°
2026-05-07 11:11 51.14978 -0.17776 211 ft 14 kts 82°
2026-05-07 11:11 51.14913 -0.17698 211 ft 14 kts 166°
2026-05-07 11:11 51.14814 -0.17639 211 ft 11 kts 133°
2026-05-07 11:12 51.14799 -0.17513 211 ft 10 kts 85°
2026-05-07 11:12 51.14777 -0.17436 211 ft 9 kts 169°
2026-05-07 11:12 51.14750 -0.17455 211 ft 4 kts 269°
2026-05-07 11:12 51.14750 -0.17471 211 ft 0 kts 274°